Regional Weather Roundup
Issued by NWS Kansas City/Pleasant Hill, MO

Home | Current Version | Previous Version | Graphics & Text | Print | Product List | Glossary Off
Versions: 1 2 3 4 5 6 7 8 9 10 11 12 13 14 15 16 17 18 19 20 21 22 23 24 25 26 27 28 29 30 31 32 33 34 35 36 37 38 39 40 41 42 43 44 45 46 47 48 49 50

000
ASUS43 KEAX 282010
RWREAX

WEATHER ROUNDUP FOR EASTERN KANSAS AND NORTHWEST MISSOURI
NATIONAL WEATHER SERVICE KANSAS CITY/PLEASANT HILL MO
200 PM CST SAT FEB 28 2015

KSZ040-057-103>105-MOZ028-029-037-043-282100-
...KANSAS CITY METROPOLITAN AREA...

CITY           SKY/WX    TMP DP  RH WIND       PRES   REMARKS
K.C. INTL      LGT SNOW  22  19  89 SE7       30.42F VSB 3/4 WCI  13
K.C. DOWNTOWN  LGT SNOW  24  19  81 S5        30.45S WCI  18
LEES SUMMIT    SNOW      22  18  85 E5        30.43F VSB 1/2 WCI  16
OLATHE - IXD   LGT SNOW  21  18  88 SE7       30.42F FOG     WCI  12
OLATHE - OJC   SNOW      21  18  88 SE6       30.41F VSB 1/2 WCI  13
LAWRENCE       LGT SNOW  22  18  85 SE8       30.43F VSB 1   WCI  12

$$

MOZ001>008-011>017-020>025-030>033-038>040-044>046-053-054-282100-
...NORTHERN AND CENTRAL MISSOURI...

CITY           SKY/WX    TMP DP  RH WIND       PRES   REMARKS
ST. JOSEPH     LGT SNOW  23  18  81 SE7       30.44F VSB 3/4 WCI  15
MOSBY          LGT SNOW  23  19  86 SE3       30.45F
WARRENSBURG    LGT SNOW  23  21  93 E7        30.45F VSB 3/4 WCI  15
WHITEMAN AFB   LGT SNOW  23  19  87 SE8       30.43F VSB 1   WCI  14
CLINTON        SNOW      27  23  86 E6        30.44F VSB 1/2 WCI  20
SEDALIA        SNOW      24  19  81 SE8       30.45F VSB 1/2 WCI  15
WARSAW         NOT AVBL
MARSHALL       LGT SNOW  25  21  86 SE7       30.50  VSB 1   WCI  17
CHILLICOTHE      N/A     24  17  74 SE6       30.47F WCI  17
KIRKSVILLE     LGT SNOW  22  17  81 SE8       30.47F WCI  12

$$

MOZ041-047>049-056>058-063>065-088>090-097-282100-
...EASTERN AND SOUTHERN MISSOURI...

CITY           SKY/WX    TMP DP  RH WIND       PRES   REMARKS
ST. LOUIS INTL LGT SNOW  26  16  65 SE8       30.52F VSB 1   WCI  18
SPIRIT OF STL  LGT SNOW  25  18  74 E6        30.52F WCI  18
COLUMBIA       LGT SNOW  23  19  85 SE9       30.46F VSB 3/4 WCI  13
JEFFERSON CITY SNOW      24  21  88 SE8       30.50F VSB 1/2 WCI  15
MEXICO         LGT SNOW  25  21  86 SE7       30.49  VSB 1   WCI  17
ROLLA          LGT SNOW  23  19  85 E7        30.42F VSB 3/4 WCI  15
OSAGE BEACH    CLOUDY    23  19  86 E5        30.45F VSB 1/2 WCI  17
SPRINGFIELD    SNOW      24  20  84 SE10      30.37F VSB 1/2 WCI  14
BRANSON        LGT SNOW  23  19  86 E10       30.39F VSB 1   WCI  12
JOPLIN         SNOW      24  21  88 SE6       30.40F VSB 1/4 WCI  17
WEST PLAINS    LGT SNOW  23  19  85 E7        30.42F VSB 3/4 WCI  15

$$

IAZ060-094-KSZ022-034>040-054-083-096-NEZ052-066-093-282100-
...KANSAS...SOUTHEAST NEBRASKA AND IOWA...

CITY           SKY/WX    TMP DP  RH WIND       PRES   REMARKS
TOPEKA         LGT SNOW  22  19  89 SE7       30.42F VSB 3/4 WCI  13
MANHATTAN      LGT SNOW  23  17  78 S7        30.39F WCI  15
EMPORIA        LGT SNOW  22  18  85 SE7       30.38F FOG     WCI  13
CHANUTE        SNOW      23  21  92 SE3       30.40F VSB 1/2
WICHITA        CLOUDY    21  16  81 SE9       30.35F WCI  11
OMAHA          LGT SNOW  22  14  71 S13       30.40F FOG     WCI  10
LINCOLN        LGT SNOW  21  16  81 S9        30.38F WCI  11
FALLS CITY     LGT SNOW  23  17  78 S9        30.41F WCI  13
LAMONI         CLOUDY    22  13  68 SE9       30.41F WCI  12
DES MOINES     CLOUDY    23   9  55 S8        30.44F WCI  14

$$




USA.gov is the U.S. government's official web portal to all federal, state and local government web resources and services.